Regional Weather Roundup
Issued by NWS

Home | Current Version | Previous Version | Graphics & Text | Print | Product List | Glossary On
Versions: 1 2 3 4 5 6 7 8 9 10 11 12 13 14 15 16 17 18 19 20 21 22 23 24 25 26 27 28 29 30 31 32 33 34 35 36 37 38 39 40 41 42 43 44 45 46 47 48 49 50
572
ASUS43 KMKX 212311
RWRWI

WISCONSIN REGIONAL WEATHER ROUNDUP
NATIONAL WEATHER SERVICE MILWAUKEE/SULLIVAN WI
600 PM CDT MON AUG 21 2017

NOTE: "FAIR" INDICATES FEW OR NO CLOUDS BELOW 12,000 FEET WITH NO
SIGNIFICANT WEATHER AND/OR OBSTRUCTIONS TO VISIBILITY.

WIZ001-002-006>008-014>016-023>028-220000-
NORTHWEST WISCONSIN

CITY           SKY/WX    TMP DP  RH WIND       PRES   REMARKS
SUPERIOR ARPT    N/A     67  62  82 CALM      29.88R
ASHLAND        PTSUNNY   66  59  78 NE3       29.90S
HAYWARD        CLOUDY    72  65  78 CALM      29.90F
SIREN          CLOUDY    72  65  78 S8        29.90S
CUMBERLAND     CLOUDY    70  64  83 S5        29.92S
RICE LAKE      CLOUDY    72  67  85 S3        29.92S
CHETEK           N/A     72  68  89 CALM      29.91F
LADYSMITH      PTSUNNY   73  68  82 S6        29.93S
EAU CLAIRE     CLOUDY    73  66  78 S10G18    29.84F
MENOMONIE      CLOUDY    72  66  83 S12G23    29.86R
NEW RICHMOND   CLOUDY    70  61  73 SW13      29.90F
OSCEOLA        CLOUDY    72  67  84 CALM      29.91F
$$

WIZ003>005-009-010-017-018-220000-
NORTH CENTRAL WISCONSIN

CITY           SKY/WX    TMP DP  RH WIND       PRES   REMARKS
MANITOWISH WTR CLOUDY    72  68  87 S3        29.92R
ARBOR VITAE    CLOUDY    74  67  77 S5        29.91S
WOODRUFF       CLOUDY    74  67  77 S5        29.91S
RHINELANDER    LGT RAIN  68  66  93 S5        29.94F
EAGLE RIVER    CLOUDY    74  64  70 SW3       29.91F
LAND O LAKES   CLOUDY    71  66  82 E5        29.93F
PHILLIPS       CLOUDY    74  69  83 SW5       29.91R
TOMAHAWK         N/A     68  67  94 CALM      29.93R
MEDFORD        CLOUDY    70  66  87 SW8       29.94R
MERRILL        PTSUNNY   72  70  94 W3        29.93F
$$

WIZ029-030-035-036-043>047-220000-
CENTRAL WISCONSIN

CITY           SKY/WX    TMP DP  RH WIND       PRES   REMARKS
WAUSAU         PTSUNNY   73  68  84 SW6       29.91F
MOSINEE        PTSUNNY   73  68  83 SW7       29.93F
MARSHFIELD     PTSUNNY   73  63  70 SW14      29.92F
STEVENS POINT  PTSUNNY   74  65  73 SW9       29.93F
WAUPACA        CLOUDY    79  68  69 S5        29.93S HX  81
WAUTOMA        CLOUDY    78  70  76 W7        29.94F HX  80
WISC RAPIDS    PTSUNNY   76  66  71 SW10      29.94F
CAMP DOUGLAS   CLOUDY    73  66  78 W7        29.94F
$$

WIZ011>013-019>022-031-037>040-048>050-220000-
NORTHEAST WISCONSIN

CITY           SKY/WX    TMP DP  RH WIND       PRES   REMARKS
ANTIGO         CLOUDY    66  65  96 SE8       29.93F
SHAWANO        CLOUDY    79  68  68 CALM      29.91S HX  81
OCONTO         CLOUDY    77  71  82 S3        29.91R
STURGEON BAY   MOSUNNY   76  69  79 SE6       29.93F
GREEN BAY      CLOUDY    78  71  79 S5        29.92F HX  80
MANITOWOC        N/A    N/A N/A N/A MISG        N/A
APPLETON       PTSUNNY   79  64  61 VRB6      29.92F HX  81
CLINTONVILLE   CLOUDY    77  68  73 CALM      29.92S
OSHKOSH        PTSUNNY   78  69  73 S7        29.93F HX  80
$$

WIZ032>034-041-042-053>061-220000-
SOUTHWEST WISCONSIN

CITY           SKY/WX    TMP DP  RH WIND       PRES   REMARKS
LA CROSSE      LGT RAIN  73  68  84 SW7       29.97R
SPARTA         LGT RAIN  71  65  82 SW5       29.96F
VIROQUA        CLOUDY    71  68  89 CALM      29.98F
BOSCOBEL       CLOUDY    80  67  64 SW8       29.97R HX  82
PRAIRIE DU CHI PTSUNNY   77  64  63 W6        29.98R
PLATTEVILLE    CLOUDY    76  72  85 SW9       29.98F
$$

WIZ056-057-062-063-064-067-068-220000-
SOUTH CENTRAL WISCONSIN

CITY           SKY/WX    TMP DP  RH WIND       PRES   REMARKS
REEDSBURG      CLOUDY    77  68  72 W7        29.95S
BARABOO/DELLS  CLOUDY    77  66  69 SW7       29.96S
LONE ROCK      CLOUDY    79  69  71 W7        29.95F HX  81
MINERAL POINT  MOSUNNY   77  72  83 SW5       29.99R
MADISON        PTSUNNY   79  66  64 SW9       29.96R HX  81
MIDDLETON      MOSUNNY   80  67  63 SW6       29.97F HX  82
WATERTOWN      CLOUDY    78  70  75 SW8       29.97R HX  80
MONROE         PTSUNNY   77  64  65 SW10G18   29.97F
JANESVILLE     PTSUNNY   81  66  61 SW12G17   29.97S HX  83
$$

WIZ051-052-058>065-066-070>072-220000-
SOUTHEAST WISCONSIN

CITY           SKY/WX    TMP DP  RH WIND       PRES   REMARKS
MILWAUKEE      PTSUNNY   84  71  65 SW13      29.96S HX  89
WAUKESHA       SUNNY     79  68  69 S12       29.98R HX  81
MILWAUKEE/TIMM SUNNY     81  66  61 S10       29.97S HX  83
RACINE         MOSUNNY   79  72  79 S12       29.99R HX  82
KENOSHA        MOSUNNY   81  72  74 S8        29.98R HX  85
FOND DU LAC    CLOUDY    79  68  69 SW9       29.95R HX  81
SHEBOYGAN      CLOUDY    77  71  82 S8        29.94F
WEST BEND      MOSUNNY   79  70  73 SW7       29.96R HX  81
JUNEAU         PTSUNNY   77  70  77 SW3       29.97S
$$

LSZ147-162-220000-
LAKE SUPERIOR

STATION/POSITION TIME  TEMP    WIND        PRES    WAVE
                       AIR SEA DIR/SP/G            HT/PER
                 (UTC) (F)     (DEG/KT/KT) (MB)    (FT/S)
W MID LAKE BUOY  2250   62 61   90/  8/  8 1011.6F   0
DEVILS ISLAND    2300   62     110/  9/ 11 1011.9F
PORT WING        2140   72      30/  7/  9 1012.5F
SAXON HARBOR     2240   66      CALM  /  3 1011.5F
$$

LMZ867-665-643>646-220000-
LAKE MICHIGAN

STATION/POSITION TIME  TEMP    WIND        PRES    WAVE
                       AIR SEA DIR/SP/G            HT/PER
                 (UTC) (F)     (DEG/KT/KT) (MB)    (FT/S)
S GREEN BAY BUOY 2300   77 74  200/  8/  8 1012.8
N MID LAKE BUOY  2250   69 69  200/  6/  8 1013.9R   1
NORTHPORT PIER   2240   72     160/  6/  7 1012.9F
KEWAUNEE LAKESHO 2242   70     180/  7/  9 1012.9F
SHEBOYGAN LAKESH 2300   72     170/ 10/ 11 1013.3F
PORT WASHINGTON  2240   75     190/  2/  4 1014.9F
ATWATER BUOY     2209   73 69  160/ 12/ 14 1014.4F
MILWAUKEE LAKESH 2250   73     150/ 14/ 15   N/A
S MID LAKE BUOY  2250   74 72  200/  8/ 10 1015.1R   1
KENOSHA   LAKESH 2300   75     170/ 14/ 16 1014.6
$$

TC  - TEMPERATURE IN CELSIUS
VSB - VISIBILITY IN STATUTE MILES
WCI - WIND CHILL INDEX
HX  - HEAT INDEX





USA.gov is the U.S. government's official web portal to all federal, state and local government web resources and services.